"Pseudo-MPEC" for CC6WR72

Created 2024 Nov 3 7:31:10 UT using Find_Orb

Click here for an explanation of pseudo-MPECs

 
 Astrometry: 
     CC6WR72*1C2024 10 29.26377802 35 14.032+14 34 23.34   ~AT7H 21.55GVNEOCPG96
     CC6WR72 1C2024 10 29.26898502 35 11.206+14 33 33.77   ~AT7H 20.81GVNEOCPG96
     CC6WR72 1C2024 10 29.27766002 35 06.428+14 32 10.97   ~AT7H 21.23GVNEOCPG96
     CC6WR72 1C2024 10 29.28285702 35 03.692+14 31 22.08   ~AT7H 20.82GVNEOCPG96
     CC6WR72 KC2024 10 29.31532502 34 46.528+14 26 20.76   ~AT82 20.96GVNEOCPI52
     CC6WR72 KC2024 10 29.31750002 34 45.422+14 26 00.92   ~AT82 21.07GVNEOCPI52
     CC6WR72 KC2024 10 29.31966702 34 44.310+14 25 41.48   ~AT82 21.11GVNEOCPI52

Station data:
(G96) Mt. Lemmon Survey  (N32.442729 W110.788720)  US/Arizona.  Observer E.
   J. Christensen. 1.5-m reflector + 10K CCD.
(I52) Steward Observatory, Mt. Lemmon Station  (N32.442570 W110.788920)
   US/Arizona.  Observers T. A. Pruyne, B. M. Africano, E. J. Christensen, G.
   A. Farneth, D. C. Fuls, A. R. Gibbs, A. D. Grauer, H. Gröller, J. A.
   Johnson, R. A. Kowalski, S. M. Larson, G. J. Leonard, D. Rankin, R. L.
   Seaman, F. C. Shelly, K. W. Wierzchoś. 1.0-m prime focus + CCD.

Orbital elements:  CC6WR72
   Perigee 2024 Oct 29.23400 TT =  5:36:57 (JD 2460612.73400)    AutoNEOCP
Epoch 2024 Oct 29.0 TT = JDT 2460612.5
q  2444.53442km                     (J2000 equator)
H   37.21 G 0.15   Peri.   81.78604
                   Node   235.23578
e   3.0453196      Incl.   43.99046
From 7 observations 2024 Oct. 29 (80.5 min); mean residual 0".00
LAUNCH at 29 Oct 2024 5:40:25.20 lat +12.85177 lon W81.04278
Residuals in arcseconds: 
241029 G96  .00   .00     241029 G96  .00   .00     241029 I52  .00   .00     
241029 G96  .00   .00     241029 I52  .00   .00     
241029 G96  .00   .00     241029 I52  .00   .00     

Ephemerides (geocentric):
Date (UTC) HH   RA             Dec           delta  r     elong  mag
---- --------  ------------   ------------  ------ ------ -----  ---
2024 11 03 08  02 39 29.811   +14 17 26.75  .05402 1.0460 178.5 31.2
2024 11 03 09  02 39 29.810   +14 17 26.41  .05446 1.0464 178.5 31.2
2024 11 03 10  02 39 29.808   +14 17 26.08  .05491 1.0468 178.6 31.2
2024 11 03 11  02 39 29.806   +14 17 25.76  .05535 1.0473 178.6 31.2
2024 11 03 12  02 39 29.805   +14 17 25.45  .05579 1.0477 178.6 31.2
2024 11 03 13  02 39 29.803   +14 17 25.16  .05624 1.0481 178.6 31.2
2024 11 03 14  02 39 29.801   +14 17 24.88  .05668 1.0486 178.7 31.3
2024 11 03 15  02 39 29.799   +14 17 24.61  .05712 1.0490 178.7 31.3
2024 11 03 16  02 39 29.797   +14 17 24.34  .05757 1.0494 178.7 31.3
2024 11 03 17  02 39 29.794   +14 17 24.09  .05801 1.0499 178.7 31.3
2024 11 03 18  02 39 29.792   +14 17 23.86  .05845 1.0503 178.7 31.3
2024 11 03 19  02 39 29.790   +14 17 23.63  .05890 1.0507 178.7 31.3
2024 11 03 20  02 39 29.788   +14 17 23.41  .05934 1.0512 178.8 31.4
2024 11 03 21  02 39 29.785   +14 17 23.20  .05979 1.0516 178.8 31.4
2024 11 03 22  02 39 29.783   +14 17 23.00  .06023 1.0520 178.8 31.4
2024 11 03 23  02 39 29.781   +14 17 22.81  .06067 1.0525 178.8 31.4
2024 11 04 00  02 39 29.779   +14 17 22.64  .06112 1.0529 178.8 31.4
2024 11 04 01  02 39 29.777   +14 17 22.47  .06156 1.0533 178.8 31.4
2024 11 04 02  02 39 29.775   +14 17 22.31  .06201 1.0538 178.8 31.4
2024 11 04 03  02 39 29.773   +14 17 22.16  .06245 1.0542 178.8 31.5
2024 11 04 04  02 39 29.771   +14 17 22.02  .06290 1.0546 178.8 31.5
2024 11 04 05  02 39 29.770   +14 17 21.90  .06334 1.0551 178.8 31.5
2024 11 04 06  02 39 29.768   +14 17 21.78  .06378 1.0555 178.8 31.5
2024 11 04 07  02 39 29.767   +14 17 21.67  .06423 1.0559 178.8 31.5
2024 11 04 08  02 39 29.766   +14 17 21.57  .06467 1.0564 178.8 31.5
2024 11 04 09  02 39 29.765   +14 17 21.48  .06512 1.0568 178.8 31.6
2024 11 04 10  02 39 29.764   +14 17 21.39  .06556 1.0572 178.8 31.6
2024 11 04 11  02 39 29.764   +14 17 21.32  .06601 1.0577 178.8 31.6
2024 11 04 12  02 39 29.764   +14 17 21.26  .06645 1.0581 178.8 31.6
2024 11 04 13  02 39 29.764   +14 17 21.20  .06690 1.0585 178.8 31.6
2024 11 04 14  02 39 29.764   +14 17 21.16  .06734 1.0590 178.8 31.6
2024 11 04 15  02 39 29.765   +14 17 21.12  .06779 1.0594 178.7 31.7
2024 11 04 16  02 39 29.766   +14 17 21.10  .06823 1.0598 178.7 31.7
2024 11 04 17  02 39 29.767   +14 17 21.08  .06868 1.0603 178.7 31.7
2024 11 04 18  02 39 29.768   +14 17 21.07  .06912 1.0607 178.7 31.7
2024 11 04 19  02 39 29.770   +14 17 21.07  .06957 1.0611 178.7 31.7
2024 11 04 20  02 39 29.772   +14 17 21.07  .07001 1.0616 178.7 31.7
2024 11 04 21  02 39 29.775   +14 17 21.09  .07046 1.0620 178.6 31.8
2024 11 04 22  02 39 29.778   +14 17 21.11  .07090 1.0624 178.6 31.8
2024 11 04 23  02 39 29.781   +14 17 21.15  .07135 1.0629 178.6 31.8
2024 11 05 00  02 39 29.785   +14 17 21.19  .07180 1.0633 178.6 31.8
2024 11 05 01  02 39 29.789   +14 17 21.24  .07224 1.0638 178.6 31.8
2024 11 05 02  02 39 29.793   +14 17 21.30  .07269 1.0642 178.5 31.8
2024 11 05 03  02 39 29.798   +14 17 21.37  .07313 1.0646 178.5 31.9
2024 11 05 04  02 39 29.803   +14 17 21.44  .07358 1.0651 178.5 31.9
2024 11 05 05  02 39 29.809   +14 17 21.52  .07403 1.0655 178.5 31.9
2024 11 05 06  02 39 29.815   +14 17 21.62  .07447 1.0659 178.4 31.9
2024 11 05 07  02 39 29.822   +14 17 21.72  .07492 1.0664 178.4 31.9